Zurück zum Katalog

STARLINK-11374

AktivKommunikationVLEO
NORAD 61581·PAYLOAD·🇺🇸 United States

Gestartet Oct 18, 2024 von Cape Canaveral Space Force Station

Loading…

Nächste Überflüge (nächste 24 Stunden)

TLE

AktuellSource: CelesTrak SupGP

Epoche: Sep 15, 2026, 03:43 UTC

1 61581C 24187H   26258.15534722 -.00069684  00000+0 -57363-3 0  2584
2 61581  53.1564  82.6171 0001027  80.6339 261.0952 15.69760218    12

Verfolge STARLINK-11374 in Echtzeit mit AllMySat

Download on the App Store